Decorah, Iowa, United States (52101)
Lat: 43.30N, Lon: 91.79W
Wx Zone: IAZ010
Local Info
Past Weather Observations for Today

NOTE: This archive is for the closest National Weather Service station to Decorah. Information may differ from the station used for current weather conditions.

Click here for Long-term Archive

Time Weather Temperature Dewpoint Humidity Pressure Winds Precip Visibility
23:35
Clear
50°F / 10°C 48°F / 9°C 94% 30.06 in
(1018 mb)
NE 5.8 mph
(NE 9 kph)
- 10SM
23:15
Clear
50°F / 10°C 48°F / 9°C 94% 30.06 in
(1018 mb)
NE 6.9 mph
(NE 11 kph)
- 10SM
22:55
Clear
50°F / 10°C 48°F / 9°C 94% 30.06 in
(1018 mb)
ENE 3.5 mph
(ENE 6 kph)
- 10SM
22:35
Partly Cloudy
50°F / 10°C 48°F / 9°C 94% 30.06 in
(1018 mb)
ENE 4.6 mph
(ENE 7 kph)
- 10SM
22:15
Mostly Cloudy
52°F / 11°C 48°F / 9°C 88% 30.04 in
(1017 mb)
ENE 3.5 mph
(ENE 6 kph)
- 10SM
21:55
Overcast
52°F / 11°C 50°F / 10°C 94% 30.06 in
(1018 mb)
Variable 3.5 mph
(Variable 6 kph)
- 10SM
21:35
Overcast
52°F / 11°C 50°F / 10°C 94% 30.04 in
(1017 mb)
NE 5.8 mph
(NE 9 kph)
-
21:15
Overcast
52°F / 11°C 50°F / 10°C 94% 30.06 in
(1018 mb)
NE 4.6 mph
(NE 7 kph)
- 10SM
20:55
Overcast
54°F / 12°C 50°F / 10°C 88% 30.06 in
(1018 mb)
NE 6.9 mph
(NE 11 kph)
- 10SM
20:35
Overcast
54°F / 12°C 50°F / 10°C 88% 30.06 in
(1018 mb)
NE 6.9 mph
(NE 11 kph)
- 10SM
20:15
Overcast
54°F / 12°C 50°F / 10°C 88% 30.06 in
(1018 mb)
Variable 6.9 mph
(Variable 11 kph)
- 10SM
19:55
Overcast
54°F / 12°C 50°F / 10°C 88% 30.06 in
(1018 mb)
NE 4.6 mph
(NE 7 kph)
- 10SM
19:35
Overcast
54°F / 12°C 50°F / 10°C 88% 30.06 in
(1018 mb)
NE 4.6 mph
(NE 7 kph)
- 10SM
19:15
Overcast
54°F / 12°C 50°F / 10°C 88% 30.06 in
(1018 mb)
NE 4.6 mph
(NE 7 kph)
- 10SM
18:55
Overcast
54°F / 12°C 50°F / 10°C 88% 30.06 in
(1018 mb)
Variable 4.6 mph
(Variable 7 kph)
- 10SM
18:35
Overcast
54°F / 12°C 50°F / 10°C 88% 30.06 in
(1018 mb)
Variable 5.8 mph
(Variable 9 kph)
- 10SM
18:15
Overcast
55°F / 13°C 50°F / 10°C 82% 30.04 in
(1017 mb)
Variable 6.9 mph
(Variable 11 kph)
- 10SM
17:55
Overcast
55°F / 13°C 50°F / 10°C 82% 30.04 in
(1017 mb)
Variable 6.9 mph
(Variable 11 kph)
- 10SM
17:35
Mostly Cloudy
55°F / 13°C 52°F / 11°C 88% 30.04 in
(1017 mb)
NNE 9.2 mph
(NNE 15 kph)
- 10SM
17:15
Partly Cloudy
57°F / 14°C 52°F / 11°C 82% 30.04 in
(1017 mb)
NNE 9.2 mph
(NNE 15 kph)
- 10SM
16:55
Clear
59°F / 15°C 52°F / 11°C 77% 30.04 in
(1017 mb)
NNE 9.2 mph
(NNE 15 kph)
- 10SM
16:35
Partly Cloudy
61°F / 16°C 54°F / 12°C 77% 30.04 in
(1017 mb)
Variable 6.9 mph
(Variable 11 kph)
- 10SM
16:15
Overcast
63°F / 17°C 54°F / 12°C 73% 30.04 in
(1017 mb)
NNE 11.5 mph
(NNE 19 kph)
- 10SM
15:55
Mostly Cloudy
64°F / 18°C 55°F / 13°C 73% 30.04 in
(1017 mb)
NNE 11.5 mph
(NNE 19 kph)
- 10SM
15:35
Partly Cloudy
66°F / 19°C 55°F / 13°C 68% 30.04 in
(1017 mb)
N 10.4 mph
(N 17 kph)
- 10SM
15:15
Clear
66°F / 19°C 57°F / 14°C 73% 30.01 in
(1016 mb)
N 11.5 mph
(N 19 kph)
- 10SM
14:55
Clear
68°F / 20°C 57°F / 14°C 69% 30.01 in
(1016 mb)
NE 9.2 mph
(NE 15 kph)
- 10SM
14:35
Partly Cloudy
68°F / 20°C 59°F / 15°C 73% 30.01 in
(1016 mb)
N 8.1 mph
(N 13 kph)
- 10SM
14:15
Partly Cloudy
66°F / 19°C 59°F / 15°C 78% 30.01 in
(1016 mb)
NNE 10.4 mph
(NNE 17 kph)
- 9SM
13:55
Overcast
64°F / 18°C 59°F / 15°C 83% 30.04 in
(1017 mb)
N 10.4 mph
(N 17 kph)
- 9SM
13:35
Mostly Cloudy
66°F / 19°C 59°F / 15°C 78% 30.04 in
(1017 mb)
N 13.8 mph
(N 22 kph)
- 9SM
13:15
Clear
70°F / 21°C 61°F / 16°C 73% 30.01 in
(1016 mb)
N 11.5 mph
(N 19 kph)
- 9SM
12:55
Clear
72°F / 22°C 61°F / 16°C 69% 30.01 in
(1016 mb)
N 12.7 mph
(N 20 kph)
- 9SM
12:35
Clear
73°F / 23°C 63°F / 17°C 69% 30.04 in
(1017 mb)
NNW 11.5 mph
(NNW 19 kph)
- 10SM
12:15
Clear
75°F / 24°C 61°F / 16°C 61% 30.04 in
(1017 mb)
N 9.2 mph
(N 15 kph)
- 10SM
11:55
Clear
75°F / 24°C 59°F / 15°C 57% 30.04 in
(1017 mb)
NW 8.1 mph
(NW 13 kph)
- 10SM
11:35
Clear
75°F / 24°C 61°F / 16°C 61% 30.04 in
(1017 mb)
NNW 8.1 mph
(NNW 13 kph)
- 10SM
11:15
Clear
75°F / 24°C 61°F / 16°C 61% 30.04 in
(1017 mb)
Variable 5.8 mph
(Variable 9 kph)
- 10SM
10:55
Clear
73°F / 23°C 59°F / 15°C 61% 30.04 in
(1017 mb)
Variable 5.8 mph
(Variable 9 kph)
- 10SM
10:35
Clear
72°F / 22°C 59°F / 15°C 65% 30.04 in
(1017 mb)
Variable 3.5 mph
(Variable 6 kph)
- 10SM
10:15
Clear
72°F / 22°C 59°F / 15°C 65% 30.04 in
(1017 mb)
NNW 5.8 mph
(NNW 9 kph)
- 10SM
09:55
Clear
70°F / 21°C 59°F / 15°C 69% 30.04 in
(1017 mb)
NNW 3.5 mph
(NNW 6 kph)
- 10SM
09:35
Clear
68°F / 20°C 59°F / 15°C 73% 30.04 in
(1017 mb)
Calm - 10SM
09:15
Clear
68°F / 20°C 57°F / 14°C 69% 30.04 in
(1017 mb)
Variable 6.9 mph
(Variable 11 kph)
- 10SM
08:55
Clear
66°F / 19°C 57°F / 14°C 73% 30.04 in
(1017 mb)
Calm - 9SM
08:35
Clear
64°F / 18°C 57°F / 14°C 78% 30.04 in
(1017 mb)
Calm - 9SM
08:15
Clear
64°F / 18°C 57°F / 14°C 78% 30.06 in
(1018 mb)
W 3.5 mph
(W 6 kph)
- 9SM
07:55
Clear
63°F / 17°C 57°F / 14°C 83% 30.06 in
(1018 mb)
Calm - 9SM
07:35
Clear
61°F / 16°C 55°F / 13°C 83% 30.04 in
(1017 mb)
Calm - 9SM
07:15
Clear
61°F / 16°C 55°F / 13°C 83% 30.06 in
(1018 mb)
Calm - 8SM
06:55
Clear
59°F / 15°C 55°F / 13°C 88% 30.04 in
(1017 mb)
Calm - 8SM
06:35
Clear
59°F / 15°C 55°F / 13°C 88% 30.04 in
(1017 mb)
Calm - 9SM
06:15
Clear
59°F / 15°C 55°F / 13°C 88% 30.04 in
(1017 mb)
Calm - 7SM
05:55
Clear
59°F / 15°C 55°F / 13°C 88% 30.04 in
(1017 mb)
Calm - 10SM
05:35
Partly Cloudy
59°F / 15°C 55°F / 13°C 88% 30.04 in
(1017 mb)
Calm - 10SM
05:15
Partly Cloudy
57°F / 14°C 54°F / 12°C 88% 30.04 in
(1017 mb)
S 3.5 mph
(S 6 kph)
- 10SM
04:55
Partly Cloudy
61°F / 16°C 55°F / 13°C 83% 30.04 in
(1017 mb)
Calm - 10SM
04:35
Partly Cloudy
61°F / 16°C 55°F / 13°C 83% 30.04 in
(1017 mb)
Calm - 10SM
04:15
Partly Cloudy
61°F / 16°C 55°F / 13°C 83% 30.04 in
(1017 mb)
Calm - 9SM
03:55
Partly Cloudy
59°F / 15°C 55°F / 13°C 88% 30.04 in
(1017 mb)
Calm - 10SM
03:35
Partly Cloudy
61°F / 16°C 55°F / 13°C 83% 30.04 in
(1017 mb)
Calm - 10SM
03:15
Mostly Cloudy
61°F / 16°C 55°F / 13°C 83% 30.04 in
(1017 mb)
Calm - 10SM
02:55
Partly Cloudy
61°F / 16°C 55°F / 13°C 83% 30.04 in
(1017 mb)
Calm - 10SM
02:35
Partly Cloudy
61°F / 16°C 55°F / 13°C 83% 30.04 in
(1017 mb)
Calm - 10SM
02:15
Partly Cloudy
59°F / 15°C 55°F / 13°C 88% 30.06 in
(1018 mb)
Calm - 10SM
01:55
Mostly Cloudy
61°F / 16°C 55°F / 13°C 83% 30.06 in
(1018 mb)
Calm - 10SM
01:35
Mostly Cloudy
59°F / 15°C 55°F / 13°C 88% 30.06 in
(1018 mb)
Calm - 9SM
01:15
Mostly Cloudy
59°F / 15°C 55°F / 13°C 88% 30.06 in
(1018 mb)
Calm - 10SM
00:55
Mostly Cloudy
59°F / 15°C 55°F / 13°C 88% 30.06 in
(1018 mb)
Calm - 9SM
00:35
Overcast
59°F / 15°C 57°F / 14°C 94% 30.06 in
(1018 mb)
Calm - 8SM
00:15
Overcast
61°F / 16°C 55°F / 13°C 83% 30.06 in
(1018 mb)
Calm - 10SM
Time Weather Temperature Dewpoint Humidity Pressure Winds Precip Visibility


Weather for websites

WeatherForYou.com, LLC is not responsible for any damages or problems caused by this service. Current weather conditions are obtained from the closest station including government and personal stations which may have varying degrees of accuracy. Weather forecasts are derived from the NOAA NDFD. Like all things, this site belongs to Jesus Christ... He just trusts me to maintain it. If you have any questions or comments email webmaster@weatherforyou.com

Copyright © 2014, WeatherForYou.com LLC. All rights reserved.